Temperature
22 23 23 23 24 24 22 21 20 21 21 21 21 21 23 25 25 25 25 25 24 24 24 23 23 22 22 22 21 21 20 20 20 19 19 18 18 17 17 17 16 16 15 15
22 23 23 23 24 24 23 22 21 21 21 21 21 23 23 24 25 24 25 25 25 24 24 23 23 23 22 22 22 21 21 21 20 19 19 19 18 18 17 17 16 16 16 15
20 22 22 21 22 22 21 20 20 19 19 19 20 21 22 24 24 24 24 25 24 24 24 24 23 23 23 22 22 21 21 21 20 20 19 19 18 18 17 17 17 16 16 15
19 20 21 21 21 21 20 18 18 18 19 19 19 20 21 23 23 24 24 24 24 24 24 24 23 23 23 23 22 21 21 21 20 20 19 19 18 18 18 17 17 16 16 16
17 19 20 21 21 20 19 17 17 17 18 19 20 20 19 20 22 23 23 23 23 24 23 23 23 23 23 22 22 21 21 21 20 20 19 19 18 18 18 17 17 16 16 16
17 19 19 20 20 20 19 17 17 17 17 18 19 17 16 18 20 21 22 22 22 22 22 22 22 22 22 21 21 21 21 21 20 20 19 19 18 18 17 17 16 16 16 16
17 17 18 19 19 19 19 17 17 17 18 18 17 16 17 18 19 19 20 20 20 20 20 20 20 21 20 20 20 20 20 19 19 19 18 18 18 17 17 16 16 16 15 15
16 16 17 18 18 18 17 17 18 18 19 18 17 17 17 17 18 18 18 18 19 19 18 18 19 19 19 18 18 18 18 18 18 17 17 17 17 16 16 16 15 15 15 15
15 16 16 17 17 18 19 18 18 19 19 18 17 17 17 17 17 17 17 17 17 17 17 17 17 17 17 16 17 17 17 16 16 16 16 16 15 15 15 15 15 14 14 14
15 15 16 17 18 18 19 19 19 18 18 18 17 16 16 16 16 16 16 16 16 16 16 16 15 15 15 15 15 15 15 15 14 14 14 14 14 14 14 14 14 14 14 13
14 15 16 16 18 18 18 18 18 18 18 17 17 16 16 16 16 15 15 15 15 15 14 14 14 14 13 13 13 13 13 13 13 13 13 13 13 13 12 12 12 12 13 13
15 15 14 16 18 18 18 18 18 17 16 16 16 16 16 15 15 15 14 14 14 13 13 13 13 12 12 12 12 12 12 12 11 11 11 11 11 12 12 12 12 12 12 12
18 18 18 17 18 18 17 17 17 17 16 16 15 15 15 15 14 14 14 13 13 12 12 12 12 11 11 11 11 11 11 10 10 10 10 10 10 10 10 11 11 11 12 12
18 18 16 17 17 17 16 16 16 16 15 15 15 14 14 14 13 13 13 12 12 12 11 11 11 11 10 10 10 10 10 10 10 9 9 9 9 9 9 9 10 10 11 11
17 17 16 16 16 16 16 16 15 15 15 14 14 14 13 13 13 12 12 12 11 11 11 10 10 10 10 10 10 10 9 9 9 9 9 9 9 9 9 9 9 9 10 10
16 16 16 16 15 15 15 15 14 14 14 14 13 13 13 12 12 12 11 11 11 10 10 10 10 10 10 10 9 9 9 9 8 8 8 8 8 8 8 8 8 8 9 9
15 15 15 15 15 14 14 14 14 14 13 13 13 12 12 12 11 11 11 11 10 10 10 10 10 10 9 9 9 9 8 8 8 8 7 7 7 7 7 7 7 7 7 8
15 15 15 15 14 14 14 14 13 13 13 12 12 12 12 11 11 11 11 10 10 10 10 10 9 9 9 9 8 8 8 7 7 7 7 6 6 6 6 6 6 6 7 7
14 14 14 14 14 14 13 13 13 12 12 12 12 12 11 11 11 11 10 10 10 10 10 9 9 9 9 8 8 7 7 7 6 6 6 5 5 5 5 5 5 6 6 6
14 14 14 13 13 13 13 12 12 12 12 12 11 11 11 11 11 10 10 10 10 9 9 9 9 8 8 8 7 7 6 6 5 5 4 4 4 4 4 4 4 5 5 6
13 13 13 13 12 12 12 12 12 12 11 11 11 11 11 11 10 10 10 10 9 9 9 8 8 8 7 7 6 5 5 4 4 3 3 3 3 3 3 3 4 4 4 5
12 12 12 12 12 12 12 11 11 11 11 11 11 11 11 10 10 10 10 9 9 8 8 8 7 7 6 5 5 4 3 3 2 2 2 2 2 2 2 2 3 3 3 4
12 12 12 12 11 11 11 11 11 11 11 11 11 11 10 10 10 9 9 8 8 7 7 7 6 5 5 4 3 3 2 2 1 1 1 1 1 1 1 2 2 2 3 3
12 11 11 11 11 11 11 11 11 11 10 10 10 10 10 9 9 8 8 8 7 7 6 5 5 4 3 3 2 2 1 1 1 0 0 1 1 1 1 1 2 2 2 2
11 11 11 11 11 11 11 10 10 10 10 10 9 9 9 9 8 8 7 7 6 5 5 4 3 3 2 1 1 1 0 -0 -0 -0 -0 -0 0 0 1 1 1 1 2 2
11 11 10 10 10 10 10 10 9 9 9 9 9 8 8 8 7 7 6 6 5 4 4 3 2 2 1 1 0 -0 -0 -1 -1 -1 -1 -0 -0 -0 0 1 1 1 1 2
10 10 10 9 9 9 9 9 8 8 8 8 8 7 7 7 6 6 5 4 4 3 2 2 1 1 0 -0 -0 -1 -1 -1 -1 -1 -1 -1 -0 -0 0 0 1 1 1 2
Wind_Speed
5 6 4 5 6 5 3 5 6 8 7 8 7 8 7 7 7 9 11 12 14 14 13 12 12 12 12 12 12 12 12 12 12 11 10 10 9 9 9 9 10 9 9 8
3 4 4 5 6 5 4 3 4 2 3 5 2 2 3 5 7 9 11 13 14 14 13 13 14 14 13 12 12 12 13 14 12 11 10 11 10 10 9 9 9 8 9 9
4 5 4 4 4 1 4 5 1 2 3 2 4 3 2 3 5 7 8 8 10 11 13 15 15 15 16 15 12 12 13 13 12 12 12 12 11 10 10 10 9 9 9 9
2 2 3 7 1 6 10 8 8 4 4 4 5 4 6 5 2 2 3 5 7 8 9 10 10 12 13 12 12 13 13 13 12 12 12 11 11 11 11 9 8 9 9 9
3 3 5 2 1 2 6 4 5 4 6 6 7 10 11 12 8 6 5 3 1 3 4 4 6 8 9 9 9 11 12 13 13 13 12 11 12 12 10 8 9 8 7 9
3 3 5 5 4 0 7 2 4 2 5 5 7 5 4 8 9 11 10 8 7 5 5 4 3 2 4 5 6 9 12 12 10 11 12 12 13 11 9 8 10 9 9 9
3 3 5 4 4 3 3 6 5 2 2 3 3 4 2 3 8 10 10 10 10 10 10 8 7 4 2 1 4 7 6 5 6 8 10 10 10 8 8 8 8 8 9 9
3 2 5 3 3 1 5 3 5 4 3 6 6 5 5 6 8 9 10 10 10 10 10 9 10 9 8 7 6 5 4 3 4 5 7 7 8 8 8 8 9 9 8 9
6 6 4 2 4 3 4 4 4 5 6 9 8 7 7 8 8 8 9 9 9 10 10 11 10 10 10 9 8 7 6 5 5 5 5 5 6 7 7 7 8 8 8 9
2 3 3 2 2 3 4 4 4 6 8 10 10 9 8 8 7 8 8 8 8 10 11 10 10 11 9 8 8 9 8 8 7 6 6 6 4 5 6 7 8 9 9 10
2 3 2 1 3 4 4 6 10 11 10 10 11 9 8 7 6 6 7 7 8 9 9 9 9 9 9 9 10 9 8 7 7 6 6 7 6 6 7 8 10 11 10 11
8 10 7 6 4 6 8 9 11 13 11 9 9 9 8 6 5 5 6 6 7 8 7 7 7 8 8 8 8 8 7 7 6 6 6 7 7 9 11 13 16 19 20 17
7 8 7 7 6 9 10 11 12 12 11 10 8 8 7 5 4 5 6 6 6 5 5 5 5 6 7 7 7 7 7 7 7 7 7 8 8 8 10 12 15 17 18 19
12 11 9 7 9 11 13 13 13 11 10 8 7 6 6 5 5 5 4 3 3 4 4 3 4 5 6 5 5 6 7 8 7 7 7 7 8 8 8 9 10 9 11 14
11 11 11 12 13 12 11 11 12 9 8 7 6 6 6 5 4 3 2 2 3 3 3 3 3 5 6 5 5 6 6 6 6 7 7 7 7 8 8 9 9 9 9 9
12 13 14 15 13 11 11 11 10 7 6 6 5 4 4 3 2 2 3 2 3 3 4 4 5 6 5 4 5 5 6 10 10 7 7 7 8 8 8 8 9 9 8 7
11 10 11 11 10 10 9 8 7 6 5 4 2 2 2 2 2 3 4 4 2 3 4 4 6 6 4 4 4 5 6 8 12 9 6 7 7 8 8 8 8 8 9 9
10 9 9 9 8 8 7 6 5 5 3 1 1 1 0 1 3 5 5 5 4 5 6 6 5 4 4 4 4 5 6 6 6 6 6 7 8 8 8 8 9 9 8 9
9 8 7 8 7 7 5 4 3 2 1 0 1 2 3 4 5 5 4 4 5 6 7 7 6 4 4 6 7 5 6 6 6 6 6 9 9 8 8 9 9 8 8 7
8 7 8 8 7 6 4 2 2 1 2 2 2 3 4 5 6 6 4 4 5 5 5 3 3 4 5 7 8 5 5 6 6 7 7 7 8 8 8 9 9 9 9 7
8 8 8 6 5 4 2 1 1 2 4 4 3 5 6 6 6 4 3 4 5 4 3 5 4 4 5 6 7 5 5 6 6 7 8 8 9 9 9 9 9 9 8 8
6 5 4 3 3 3 3 3 3 4 5 5 6 5 5 5 5 3 2 2 1 3 3 3 3 5 7 7 5 5 6 6 7 7 7 8 9 9 9 9 9 9 8 8
2 2 2 3 3 4 5 5 5 5 5 6 5 5 4 4 2 1 1 2 1 4 4 3 6 9 9 6 5 6 7 7 7 8 8 8 9 9 9 10 9 9 8 7
2 3 4 5 4 4 5 6 5 4 4 3 3 2 0 1 2 2 2 3 5 5 4 5 9 10 8 5 5 6 6 7 8 8 8 8 8 9 9 9 9 9 8 9
5 5 5 5 4 4 4 4 4 4 3 2 3 3 2 2 2 2 3 4 6 5 4 6 9 8 6 5 5 6 6 7 8 8 8 8 9 9 9 9 9 9 8 8
4 4 3 3 2 2 2 2 2 2 1 2 3 3 3 3 4 4 4 5 6 6 5 4 4 5 5 5 6 6 6 8 8 8 9 9 9 9 9 9 11 9 8 8
5 4 4 4 4 3 3 2 2 2 1 1 1 2 2 3 4 4 5 4 4 5 4 4 4 4 5 5 6 6 6 7 7 8 9 9 9 9 9 11 9 9 8 9
Wind_Direction
224 235 220 247 276 285 255 215 207 244 231 238 233 211 204 191 176 169 174 176 179 183 188 190 191 193 193 195 192 187 187 195 204 205 203 205 208 212 214 215 218 216 218 223
300 272 283 291 288 289 308 306 246 210 250 278 263 120 134 158 160 165 175 183 187 189 190 192 195 197 197 200 199 191 194 204 206 201 203 206 209 210 213 218 220 217 218 219
270 292 358 297 264 230 66 17 49 120 259 13 48 59 138 166 161 174 176 182 188 194 196 197 197 194 197 202 197 195 202 206 202 200 205 209 209 208 213 217 218 219 222 220
228 19 249 251 274 110 93 50 32 47 18 48 82 62 41 25 91 123 164 183 196 203 208 210 207 205 203 196 192 198 204 207 204 201 207 207 205 211 216 214 214 220 223 222
148 203 258 277 287 149 118 56 356 36 46 44 52 51 30 14 31 57 56 52 167 204 209 213 216 215 205 205 204 206 211 211 208 204 206 205 209 216 214 211 217 218 217 219
142 172 233 256 302 32 104 91 287 32 64 52 51 57 352 347 22 37 41 42 41 45 49 24 306 218 183 213 213 222 225 222 215 207 207 211 215 217 213 211 220 220 226 223
160 203 252 285 322 41 138 212 220 190 101 79 84 142 175 10 41 42 40 40 44 49 47 27 13 52 66 4 275 263 259 241 226 219 219 221 219 217 214 214 219 223 231 234
146 173 250 317 18 154 211 192 185 187 153 116 113 114 100 67 54 44 42 38 40 48 41 27 31 46 42 15 340 349 349 299 263 247 241 235 225 226 220 213 219 228 235 246
182 204 222 194 198 205 171 176 203 179 156 135 124 109 93 75 62 52 48 43 41 47 41 31 31 43 40 12 8 16 18 1 334 315 290 268 243 238 234 223 226 235 235 247
178 236 219 204 195 168 177 171 147 127 123 122 115 106 92 78 66 56 47 44 43 46 43 32 29 36 33 19 21 29 22 6 354 342 326 312 289 262 249 241 240 242 243 248
167 192 148 228 191 155 124 110 102 96 97 104 103 97 91 80 68 60 49 41 44 47 46 36 33 31 21 20 26 25 13 1 350 343 328 317 304 284 270 257 251 248 251 247
197 191 168 186 185 135 117 109 105 99 87 83 92 91 83 74 65 62 54 48 48 47 47 39 36 25 11 12 23 21 2 346 335 327 321 314 309 306 287 275 272 261 254 251
152 145 134 136 121 115 111 105 100 97 95 86 77 81 78 67 54 54 51 51 54 53 52 44 34 14 356 357 7 5 345 329 323 321 317 313 310 307 307 304 292 283 273 261
118 112 103 110 111 108 107 103 96 89 85 85 79 72 68 58 50 48 40 35 43 47 40 29 18 350 330 338 349 341 330 322 320 310 307 306 305 303 301 302 305 303 293 278
93 105 116 111 100 97 96 93 87 81 77 70 67 67 67 63 50 22 355 7 25 15 354 347 339 317 313 325 334 327 322 313 309 306 305 303 303 304 302 301 298 296 297 297
99 95 98 97 96 93 90 89 88 84 82 76 69 69 77 82 59 7 344 352 5 331 302 303 303 295 301 317 323 318 312 312 318 311 310 310 310 308 308 307 306 303 300 296
99 96 99 98 95 94 95 98 100 95 86 86 94 103 90 68 18 334 313 305 297 279 280 285 290 290 296 308 311 305 304 309 316 317 312 313 314 310 306 305 308 309 303 298
103 111 113 111 107 100 94 92 94 97 102 110 114 99 210 243 262 274 279 288 302 308 300 290 288 293 308 316 315 309 308 308 311 311 313 317 317 313 312 310 309 309 307 307
110 110 107 105 109 111 109 104 102 108 99 68 303 276 265 261 260 265 272 287 294 295 294 299 316 335 333 324 332 315 319 323 326 323 320 321 321 316 316 315 312 313 311 310
83 81 80 79 80 87 89 90 89 25 300 289 288 290 287 280 275 273 276 278 271 270 287 330 4 357 338 327 339 332 336 338 335 332 330 326 322 319 319 320 319 321 319 317
71 72 73 73 68 64 59 43 335 297 293 290 269 261 262 269 274 276 283 291 298 325 24 37 26 355 339 339 348 351 348 345 339 334 331 326 324 323 323 325 325 326 328 327
65 63 57 48 31 348 314 302 290 286 288 282 273 270 274 279 287 301 300 260 289 64 65 37 11 1 6 12 7 359 353 347 340 335 332 330 329 328 327 329 329 327 329 331
47 20 344 316 299 288 298 301 295 289 285 281 279 281 277 275 279 252 308 330 48 78 69 33 17 21 30 25 10 2 354 348 342 338 335 331 330 329 329 330 330 329 332 336
322 311 296 289 297 307 303 296 298 299 304 311 307 304 338 26 24 44 104 79 87 86 72 42 35 35 33 18 7 360 352 346 343 340 337 335 335 335 334 333 333 335 337 339
302 297 296 301 302 287 275 285 313 328 352 5 358 3 29 107 118 109 94 85 90 82 65 46 41 36 27 11 3 356 350 346 345 341 337 336 336 334 332 332 333 333 335 335
315 306 299 295 288 292 310 338 344 332 357 10 353 1 28 59 88 99 95 83 75 71 60 40 28 25 16 6 359 353 349 346 344 342 339 337 335 335 333 334 334 335 334 334
347 355 2 3 357 0 11 15 2 342 350 33 344 358 43 76 90 92 89 78 67 61 51 37 28 19 9 1 357 355 352 350 347 345 341 339 339 338 338 337 336 335 337 337
Height
1497 1493 1493 1493 1491 1489 1494 1499 1506 1500 1495 1487 1481 1479 1478 1479 1481 1484 1487 1490 1493 1496 1499 1502 1505 1507 1509 1511 1513 1514 1516 1516 1517 1518 1519 1520 1520 1519 1519 1519 1518 1518 1517 1516
1496 1489 1490 1491 1487 1486 1487 1489 1490 1489 1491 1481 1478 1477 1478 1479 1481 1483 1485 1488 1491 1494 1496 1498 1501 1502 1504 1506 1508 1509 1510 1511 1512 1513 1514 1514 1514 1515 1514 1514 1514 1513 1512 1511
1504 1493 1494 1501 1491 1488 1492 1491 1491 1496 1493 1483 1482 1481 1481 1481 1482 1483 1484 1487 1489 1491 1493 1495 1496 1498 1499 1501 1503 1504 1505 1506 1507 1507 1508 1508 1509 1509 1509 1508 1508 1507 1507 1506
1506 1503 1511 1498 1484 1484 1491 1494 1491 1490 1488 1485 1485 1484 1484 1484 1484 1484 1485 1486 1487 1489 1490 1492 1493 1494 1495 1496 1497 1498 1499 1500 1501 1501 1502 1502 1503 1503 1503 1503 1502 1502 1501 1500
1510 1511 1503 1491 1486 1486 1491 1499 1495 1491 1488 1486 1484 1483 1486 1488 1487 1485 1485 1486 1486 1487 1488 1488 1489 1490 1491 1492 1492 1493 1493 1493 1494 1495 1495 1496 1496 1496 1497 1497 1496 1496 1495 1495
1506 1509 1510 1495 1484 1482 1488 1501 1495 1491 1487 1486 1486 1493 1496 1492 1489 1487 1486 1485 1485 1485 1485 1486 1486 1486 1487 1488 1488 1488 1488 1488 1489 1489 1489 1489 1490 1490 1491 1490 1490 1490 1489 1488
1505 1507 1499 1488 1484 1484 1499 1499 1491 1489 1487 1487 1489 1493 1495 1493 1490 1489 1487 1487 1486 1485 1484 1484 1484 1484 1484 1484 1484 1484 1484 1483 1484 1484 1484 1484 1484 1484 1484 1484 1483 1482 1482 1481
1503 1507 1502 1484 1484 1489 1491 1487 1487 1487 1487 1488 1491 1492 1493 1492 1490 1490 1489 1488 1488 1486 1485 1484 1483 1482 1482 1482 1481 1481 1480 1479 1479 1479 1479 1478 1478 1477 1477 1476 1475 1474 1473 1472
1492 1493 1484 1480 1482 1484 1485 1485 1485 1485 1487 1489 1492 1493 1493 1493 1492 1492 1491 1490 1489 1488 1486 1485 1484 1483 1482 1481 1480 1478 1476 1475 1474 1474 1473 1473 1471 1470 1470 1469 1468 1466 1465 1463
1486 1484 1481 1481 1483 1483 1485 1485 1486 1487 1488 1490 1491 1493 1493 1493 1493 1493 1492 1491 1490 1488 1487 1485 1484 1483 1482 1480 1478 1476 1474 1472 1470 1469 1468 1467 1465 1464 1462 1461 1459 1457 1456 1454
1484 1482 1481 1481 1482 1483 1486 1487 1487 1489 1491 1492 1492 1493 1494 1494 1494 1494 1493 1492 1490 1489 1487 1486 1485 1483 1481 1479 1476 1474 1472 1470 1468 1465 1463 1461 1459 1457 1455 1453 1452 1449 1447 1445
1475 1473 1475 1479 1481 1484 1486 1488 1488 1490 1492 1494 1494 1495 1495 1495 1495 1495 1494 1492 1491 1489 1488 1486 1484 1482 1480 1477 1475 1472 1469 1467 1464 1461 1458 1455 1452 1449 1447 1445 1442 1440 1438 1436
1463 1468 1473 1478 1481 1484 1487 1489 1490 1492 1493 1495 1496 1496 1496 1496 1496 1495 1493 1492 1491 1489 1487 1486 1483 1481 1478 1476 1473 1470 1467 1464 1461 1457 1454 1450 1447 1443 1438 1435 1433 1430 1428 1425
1463 1468 1474 1478 1481 1484 1487 1489 1491 1493 1495 1496 1497 1497 1497 1496 1495 1494 1493 1491 1490 1488 1486 1484 1481 1479 1476 1474 1471 1468 1465 1461 1457 1454 1450 1446 1442 1438 1433 1428 1424 1420 1418 1416
1468 1470 1474 1479 1483 1486 1488 1490 1492 1494 1496 1496 1497 1496 1496 1495 1494 1493 1492 1490 1488 1486 1484 1482 1479 1477 1474 1471 1468 1464 1461 1457 1453 1449 1445 1441 1436 1432 1427 1423 1418 1413 1410 1407
1474 1476 1479 1481 1484 1488 1490 1491 1493 1495 1496 1496 1496 1496 1495 1494 1493 1492 1490 1488 1486 1483 1481 1479 1476 1474 1471 1467 1464 1460 1456 1453 1448 1444 1440 1435 1430 1426 1421 1416 1411 1407 1403 1400
1478 1481 1483 1485 1487 1489 1491 1492 1494 1495 1496 1496 1495 1495 1494 1492 1491 1489 1488 1486 1483 1481 1478 1475 1473 1470 1466 1463 1459 1455 1451 1447 1443 1439 1434 1430 1425 1420 1415 1410 1406 1401 1397 1394
1483 1485 1487 1488 1489 1491 1492 1493 1494 1495 1495 1494 1494 1493 1491 1490 1488 1486 1484 1482 1480 1477 1474 1471 1468 1465 1462 1458 1454 1450 1446 1442 1438 1433 1429 1424 1419 1414 1410 1405 1400 1396 1391 1388
1487 1488 1489 1490 1491 1492 1493 1493 1494 1493 1493 1492 1491 1489 1488 1486 1485 1483 1480 1478 1475 1472 1470 1467 1464 1461 1457 1454 1450 1445 1441 1437 1432 1428 1423 1418 1414 1409 1405 1400 1395 1391 1387 1383
1490 1490 1491 1492 1492 1493 1493 1493 1492 1491 1490 1489 1487 1486 1484 1483 1481 1479 1476 1473 1471 1468 1465 1462 1459 1456 1452 1449 1445 1440 1436 1431 1426 1422 1417 1413 1408 1404 1400 1396 1391 1387 1383 1380
1491 1491 1492 1492 1492 1492 1491 1490 1489 1488 1487 1485 1484 1482 1480 1478 1476 1474 1471 1469 1466 1464 1461 1458 1455 1451 1448 1443 1439 1435 1430 1426 1421 1417 1412 1408 1404 1400 1396 1392 1388 1384 1380 1377
1492 1492 1491 1491 1490 1489 1489 1487 1486 1485 1483 1481 1480 1478 1476 1474 1472 1469 1467 1465 1462 1460 1457 1454 1451 1447 1443 1439 1434 1430 1426 1421 1417 1413 1408 1404 1400 1396 1392 1389 1385 1381 1377 1374
1491 1490 1490 1489 1488 1487 1485 1484 1482 1481 1479 1477 1475 1473 1472 1470 1467 1465 1463 1461 1459 1456 1453 1450 1446 1442 1438 1434 1430 1426 1422 1417 1413 1409 1405 1402 1398 1394 1390 1386 1382 1379 1375 1372
1489 1488 1487 1486 1484 1483 1482 1480 1479 1477 1475 1473 1472 1470 1468 1466 1464 1462 1460 1457 1455 1452 1449 1446 1442 1438 1434 1430 1426 1422 1419 1415 1411 1407 1403 1399 1395 1391 1388 1384 1380 1377 1374 1371
1486 1485 1483 1482 1480 1479 1478 1476 1475 1473 1471 1470 1468 1467 1465 1463 1461 1458 1456 1454 1451 1449 1445 1442 1439 1435 1431 1428 1424 1420 1417 1413 1409 1405 1401 1397 1393 1390 1386 1382 1378 1375 1372 1369
1484 1482 1480 1479 1477 1476 1474 1473 1471 1469 1468 1466 1465 1463 1461 1459 1457 1455 1453 1451 1448 1445 1443 1440 1437 1433 1430 1426 1423 1419 1416 1412 1407 1404 1400 1396 1392 1388 1384 1380 1377 1373 1370 1367
1481 1479 1477 1476 1474 1473 1471 1470 1468 1466 1465 1463 1461 1460 1458 1456 1454 1452 1450 1448 1445 1443 1441 1438 1436 1432 1429 1426 1423 1419 1415 1411 1407 1403 1399 1395 1391 1387 1383 1379 1375 1372 1369 1366